Regional Weather Roundup
Issued by NWS

Home | Current Version | Previous Version | Text Only | Print | Product List | Glossary On
Versions: 1 2 3 4 5 6 7 8 9 10 11 12 13 14 15 16 17 18 19 20 21 22 23 24 25 26 27 28 29 30 31 32 33 34 35 36 37 38 39 40 41 42 43 44 45 46 47 48 49 50
000
ASUS43 KLMK 221710
RWRKY
KENTUCKY REGIONAL WEATHER ROUNDUP
NATIONAL WEATHER SERVICE LOUISVILLE KY
100 PM EDT MON MAY 22 2017

NOTE "FAIR" INDICATES FEW OR NO CLOUDS BELOW 12,000 FEET
WITH NO SIGNIFICANT WEATHER AND/OR OBSTRUCTIONS TO VISIBILITY.

KYZ001>023-026-027-061>063-070>075-221800-
WESTERN AND SOUTH CENTRAL KENTUCKY

CITY           SKY/WX    TMP DP  RH WIND       PRES   REMARKS
PADUCAH        PTSUNNY   70  45  40 E7        30.12F
HENDERSON      MOSUNNY   69  49  48 N7        30.13F
OWENSBORO      CLOUDY    67  47  48 E9        30.14F
HOPKINSVILLE   CLOUDY    68  49  49 E7        30.12F
BOWLING GREEN  CLOUDY    68  51  54 NE10      30.13F
GLASGOW        CLOUDY    67  48  49 NE7       30.13F
$$

KYZ024-025-028>034-038-045-046-053-221800-
NORTH CENTRAL KENTUCKY

CITY           SKY/WX    TMP DP  RH WIND       PRES   REMARKS
LOUISVILLE/SDF CLOUDY    68  45  43 E9        30.13F
LOUISVILLE/LOU CLOUDY    68  46  45 E9        30.14F
FORT KNOX      PTSUNNY   65  48  53 NE7       30.12F
$$

KYZ035>037-039>044-047>052-055>060-089>105-221800-
NORTHEAST KENTUCKY

CITY           SKY/WX    TMP DP  RH WIND       PRES   REMARKS
LEXINGTON      MOSUNNY   65  45  48 VRB3      30.15S
COVINGTON      CLOUDY    63  42  46 NW7       30.13F
FRANKFORT      PTSUNNY   66  44  45 N7        30.14F
$$

KYZ054-064>069-076>088-106>120-221800-
SOUTHEAST KENTUCKY

CITY           SKY/WX    TMP DP  RH WIND       PRES   REMARKS
JACKSON        CLOUDY    63  47  55 VRB3      30.14F
LONDON         CLOUDY    64  48  56 CALM      30.14F
SOMERSET       MOSUNNY   63  45  51 NE3       30.15F
MIDDLESBORO    CLOUDY    67  57  68 N5        30.13F
MONTICELLO     MOSUNNY   64  49  57 N9        30.15F
$$





USA.gov is the U.S. government's official web portal to all federal, state and local government web resources and services.